Location: Glencliff
(36.1226°N, 86.7183°W)
Time: 14:31:40
(UTC+00:00)

Meteor 1-28 Rocket - Pass Details

Date: 25 August 2019
Orbit: 505 x 523 km, 97.3° (Epoch: 16 September)

Event Time Altitude Azimuth Distance (km) Brightness Sun altitude
Exits shadow 09:14:35 56° 133° (SE) 605 3.5 -22.6°
Maximum altitude 09:15:11 70° 77° (ENE) 542 3.3 -22.5°
Drops below altitude 10° 09:18:52 10° 354° (N) 1,723 6.2 -21.9°
Sets 09:20:58 0° 352° (N) 2,612 7.1 -21.6°
